Location: Unspecified
(0.0000°N, 0.0000°E)
Time: 14:59:35
(UTC+00:00)

FENGYUN 1C DEB - Pass Details

Date: 19 February 2026
Orbit: 775 x 802 km, 98.9° (Epoch: 9 April)

Event Time Altitude Azimuth Distance (km) Brightness Sun altitude
Rises 04:59:07 0° 187° (S) 3,201 ? -18.3°
Reaches altitude 10° 05:01:41 10° 199° (SSW) 2,278 ? -17.7°
Maximum altitude 05:05:57 28° 257° (WSW) 1,381 ? -16.6°
Enters shadow 05:06:52 27° 276° (W) 1,436 ? -16.4°
